Location: Castelnau
(43.6639°N, 0.8431°W)
Time: 20:17:36
(UTC+00:00)

BREEZE-M DEB (TANK) - Pass Details

Date: 13 January 2026
Orbit: 314 x 16556 km, 49.5° (Epoch: 11 February)

Event Time Altitude Azimuth Distance (km) Brightness Sun altitude
Exits shadow 05:28:16 56° 318° (NW) 803 3.3 -22.4°
Maximum altitude 05:29:04 76° 26° (NNE) 788 3.5 -22.2°
Drops below altitude 10° 05:38:58 10° 114° (ESE) 4,975 8.8 -20.4°
Sets 05:46:37 0° 116° (ESE) 8,054 10.2 -19.1°
